Year,Month,Day,Hour,Minute,Value (Times are PST for windspeed in km/hr)
2010,05,03,00,00,10.50
2010,05,03,00,01,13.40
2010,05,03,00,02,10.30
2010,05,03,00,03,8.90
2010,05,03,00,04,6.50
2010,05,03,00,05,8.60
2010,05,03,00,06,8.20
2010,05,03,00,07,9.60
2010,05,03,00,08,7.90
2010,05,03,00,09,7.20
2010,05,03,00,10,7.80
2010,05,03,00,11,8.60
2010,05,03,00,12,9.30
2010,05,03,00,13,9.00
2010,05,03,00,14,7.20
2010,05,03,00,15,13.20
2010,05,03,00,16,11.60
2010,05,03,00,17,13.00
2010,05,03,00,18,10.60
2010,05,03,00,19,8.50
2010,05,03,00,20,9.90
2010,05,03,00,21,9.40
2010,05,03,00,22,8.20
2010,05,03,00,23,9.70
2010,05,03,00,24,10.30
2010,05,03,00,25,12.40
2010,05,03,00,26,9.70
2010,05,03,00,27,10.50
2010,05,03,00,28,7.60
2010,05,03,00,29,9.60
2010,05,03,00,30,9.70
2010,05,03,00,31,9.50
2010,05,03,00,32,10.90
2010,05,03,00,33,8.20
2010,05,03,00,34,6.90
2010,05,03,00,35,9.60
2010,05,03,00,36,12.40
2010,05,03,00,37,14.20
2010,05,03,00,38,9.90
2010,05,03,00,39,8.10
2010,05,03,00,40,8.70
2010,05,03,00,41,11.40
2010,05,03,00,42,10.80
2010,05,03,00,43,10.50
2010,05,03,00,44,9.30
2010,05,03,00,45,13.80
2010,05,03,00,46,10.90
2010,05,03,00,47,7.90
2010,05,03,00,48,11.90
2010,05,03,00,49,12.20
2010,05,03,00,50,15.00
2010,05,03,00,51,8.00
2010,05,03,00,52,9.40
2010,05,03,00,53,8.70
2010,05,03,00,54,8.40
2010,05,03,00,55,11.20
2010,05,03,00,56,11.60
2010,05,03,00,57,10.80
2010,05,03,00,58,12.90
2010,05,03,00,59,10.30
2010,05,03,01,00,14.00
2010,05,03,01,01,9.50
2010,05,03,01,02,14.70
2010,05,03,01,03,13.40
2010,05,03,01,04,7.60
2010,05,03,01,05,12.50
2010,05,03,01,06,12.80
2010,05,03,01,07,10.20
2010,05,03,01,08,8.60
2010,05,03,01,09,12.20
2010,05,03,01,10,8.80
2010,05,03,01,11,10.80
2010,05,03,01,12,8.60
2010,05,03,01,13,8.90
2010,05,03,01,14,12.00
2010,05,03,01,15,10.00
2010,05,03,01,16,10.20
2010,05,03,01,17,7.20
2010,05,03,01,18,10.90
2010,05,03,01,19,8.40
2010,05,03,01,20,8.70
2010,05,03,01,21,7.60
2010,05,03,01,22,8.30
2010,05,03,01,23,7.50
2010,05,03,01,24,12.50
2010,05,03,01,25,11.60
2010,05,03,01,26,11.20
2010,05,03,01,27,11.30
2010,05,03,01,28,11.30
2010,05,03,01,29,13.00
2010,05,03,01,30,12.80
2010,05,03,01,31,11.30
2010,05,03,01,32,13.90
2010,05,03,01,33,16.20
2010,05,03,01,34,12.40
2010,05,03,01,35,13.20
2010,05,03,01,36,9.70
2010,05,03,01,37,11.30
2010,05,03,01,38,15.00
2010,05,03,01,39,19.70
2010,05,03,01,40,16.30
2010,05,03,01,41,16.30
2010,05,03,01,42,16.00
2010,05,03,01,43,18.40
2010,05,03,01,44,20.60
2010,05,03,01,45,12.50
2010,05,03,01,46,11.50
2010,05,03,01,47,12.30
2010,05,03,01,48,14.50
2010,05,03,01,49,17.20
2010,05,03,01,50,12.60
2010,05,03,01,51,17.10
2010,05,03,01,52,12.50
2010,05,03,01,53,11.30
2010,05,03,01,54,12.60
2010,05,03,01,55,15.00
2010,05,03,01,56,21.40
2010,05,03,01,57,26.50
2010,05,03,01,58,25.30
2010,05,03,01,59,23.90
2010,05,03,02,00,21.00
2010,05,03,02,01,21.60
2010,05,03,02,02,22.40
2010,05,03,02,03,22.70
2010,05,03,02,04,26.10
2010,05,03,02,05,23.50
2010,05,03,02,06,26.50
2010,05,03,02,07,22.00
2010,05,03,02,08,22.60
2010,05,03,02,09,26.60
2010,05,03,02,10,25.90
2010,05,03,02,11,29.10
2010,05,03,02,12,31.10
2010,05,03,02,13,19.90
2010,05,03,02,14,29.00
2010,05,03,02,15,30.40
2010,05,03,02,16,27.90
2010,05,03,02,17,27.00
2010,05,03,02,18,20.80
2010,05,03,02,19,27.60
2010,05,03,02,20,35.10
2010,05,03,02,21,31.50
2010,05,03,02,22,32.90
2010,05,03,02,23,26.20
2010,05,03,02,24,29.50
2010,05,03,02,25,21.10
2010,05,03,02,26,28.80
2010,05,03,02,27,19.50
2010,05,03,02,28,27.60
2010,05,03,02,29,23.00
2010,05,03,02,30,20.10
2010,05,03,02,31,31.50
2010,05,03,02,32,32.70
2010,05,03,02,33,25.40
2010,05,03,02,34,25.10
2010,05,03,02,35,18.30
2010,05,03,02,36,21.30
2010,05,03,02,37,18.20
2010,05,03,02,38,25.20
2010,05,03,02,39,27.00
2010,05,03,02,40,25.60
2010,05,03,02,41,25.20
2010,05,03,02,42,17.00
2010,05,03,02,43,24.90
2010,05,03,02,44,24.80
2010,05,03,02,45,18.30
2010,05,03,02,46,20.70
2010,05,03,02,47,31.10
2010,05,03,02,48,27.80
2010,05,03,02,49,27.40
2010,05,03,02,50,16.40
2010,05,03,02,51,22.10
2010,05,03,02,52,25.70
2010,05,03,02,53,23.30
2010,05,03,02,54,18.70
2010,05,03,02,55,24.10
2010,05,03,02,56,31.50
2010,05,03,02,57,15.00
2010,05,03,02,58,13.20
2010,05,03,02,59,14.10
2010,05,03,03,00,27.00
2010,05,03,03,01,21.40
2010,05,03,03,02,19.00
2010,05,03,03,03,16.10
2010,05,03,03,04,18.80
2010,05,03,03,05,18.40
2010,05,03,03,06,18.50
2010,05,03,03,07,14.40
2010,05,03,03,08,16.50
2010,05,03,03,09,25.50
2010,05,03,03,10,16.20
2010,05,03,03,11,22.10
2010,05,03,03,12,26.00
2010,05,03,03,13,32.20
2010,05,03,03,14,29.80
2010,05,03,03,15,26.20
2010,05,03,03,16,18.00
2010,05,03,03,17,17.50
2010,05,03,03,18,28.00
2010,05,03,03,19,21.80
2010,05,03,03,20,13.90
2010,05,03,03,21,22.70
2010,05,03,03,22,11.30
2010,05,03,03,23,21.00
2010,05,03,03,24,16.10
2010,05,03,03,25,28.10
2010,05,03,03,26,18.40
2010,05,03,03,27,16.70
2010,05,03,03,28,25.30
2010,05,03,03,29,15.20
2010,05,03,03,30,18.60
2010,05,03,03,31,14.10
2010,05,03,03,32,18.00
2010,05,03,03,33,17.80
2010,05,03,03,34,8.60
2010,05,03,03,35,25.50
2010,05,03,03,36,19.60
2010,05,03,03,37,18.60
2010,05,03,03,38,28.10
2010,05,03,03,39,17.40
2010,05,03,03,40,13.90
2010,05,03,03,41,29.50
2010,05,03,03,42,22.90
2010,05,03,03,43,10.80
2010,05,03,03,44,13.90
2010,05,03,03,45,26.00
2010,05,03,03,46,30.00
2010,05,03,03,47,33.90
2010,05,03,03,48,24.90
2010,05,03,03,49,32.00
2010,05,03,03,50,17.50
2010,05,03,03,51,20.60
2010,05,03,03,52,17.90
2010,05,03,03,53,23.80
2010,05,03,03,54,24.10
2010,05,03,03,55,21.30
2010,05,03,03,56,17.80
2010,05,03,03,57,28.20
2010,05,03,03,58,28.20
2010,05,03,03,59,28.10
2010,05,03,04,00,27.00
2010,05,03,04,01,24.80
2010,05,03,04,02,28.90
2010,05,03,04,03,31.30
2010,05,03,04,04,28.60
2010,05,03,04,05,22.70
2010,05,03,04,06,21.30
2010,05,03,04,07,26.70
2010,05,03,04,08,21.30
2010,05,03,04,09,23.90
2010,05,03,04,10,23.00
2010,05,03,04,11,28.50
2010,05,03,04,12,24.50
2010,05,03,04,13,29.50
2010,05,03,04,14,25.90
2010,05,03,04,15,33.10
2010,05,03,04,16,26.30
2010,05,03,04,17,14.90
2010,05,03,04,18,30.60
2010,05,03,04,19,28.90
2010,05,03,04,20,26.90
2010,05,03,04,21,20.10
2010,05,03,04,22,25.10
2010,05,03,04,23,22.80
2010,05,03,04,24,21.90
2010,05,03,04,25,21.90
2010,05,03,04,26,14.10
2010,05,03,04,27,25.80
2010,05,03,04,28,24.80
2010,05,03,04,29,36.70
2010,05,03,04,30,28.70
2010,05,03,04,31,22.40
2010,05,03,04,32,26.80
2010,05,03,04,33,16.20
2010,05,03,04,34,19.80
2010,05,03,04,35,34.00
2010,05,03,04,36,26.10
2010,05,03,04,37,19.20
2010,05,03,04,38,11.30
2010,05,03,04,39,10.70
2010,05,03,04,40,18.40
2010,05,03,04,41,18.60
2010,05,03,04,42,24.70
2010,05,03,04,43,20.20
2010,05,03,04,44,25.20
2010,05,03,04,45,23.30
2010,05,03,04,46,23.80
2010,05,03,04,47,21.70
2010,05,03,04,48,30.20
2010,05,03,04,49,21.50
2010,05,03,04,50,18.90
2010,05,03,04,51,18.50
2010,05,03,04,52,17.40
2010,05,03,04,53,24.60
2010,05,03,04,54,27.40
2010,05,03,04,55,17.90
2010,05,03,04,56,19.60
2010,05,03,04,57,26.20
2010,05,03,04,58,22.00
2010,05,03,04,59,14.60
2010,05,03,05,00,21.90
2010,05,03,05,01,18.30
2010,05,03,05,02,22.10
2010,05,03,05,03,18.20
2010,05,03,05,04,16.50
2010,05,03,05,05,25.30
2010,05,03,05,06,16.50
2010,05,03,05,07,21.20
2010,05,03,05,08,26.50
2010,05,03,05,09,28.10
2010,05,03,05,10,24.40
2010,05,03,05,11,26.30
2010,05,03,05,12,35.60
2010,05,03,05,13,26.30
2010,05,03,05,14,19.60
2010,05,03,05,15,25.40
2010,05,03,05,16,27.10
2010,05,03,05,17,29.50
2010,05,03,05,18,28.20
2010,05,03,05,19,20.10
2010,05,03,05,20,23.20
2010,05,03,05,21,32.80
2010,05,03,05,22,34.00
2010,05,03,05,23,22.30
2010,05,03,05,24,23.30
2010,05,03,05,25,27.90
2010,05,03,05,26,28.80
2010,05,03,05,27,24.40
2010,05,03,05,28,27.40
2010,05,03,05,29,34.10
2010,05,03,05,30,34.90
2010,05,03,05,31,33.00
2010,05,03,05,32,37.20
2010,05,03,05,33,22.00
2010,05,03,05,34,24.00
2010,05,03,05,35,24.70
2010,05,03,05,36,18.20
2010,05,03,05,37,22.50
2010,05,03,05,38,32.40
2010,05,03,05,39,23.50
2010,05,03,05,40,24.60
2010,05,03,05,41,25.70
2010,05,03,05,42,24.30
2010,05,03,05,43,20.60
2010,05,03,05,44,19.40
2010,05,03,05,45,20.00
2010,05,03,05,46,25.70
2010,05,03,05,47,30.50
2010,05,03,05,48,30.80
2010,05,03,05,49,28.80
2010,05,03,05,50,30.80
2010,05,03,05,51,24.60
2010,05,03,05,52,24.70
2010,05,03,05,53,24.70
2010,05,03,05,54,24.10
2010,05,03,05,55,25.90
2010,05,03,05,56,21.20
2010,05,03,05,57,19.00
2010,05,03,05,58,24.10
2010,05,03,05,59,34.00
2010,05,03,06,00,32.80
2010,05,03,06,01,35.60
2010,05,03,06,02,28.20
2010,05,03,06,03,27.20
2010,05,03,06,04,29.30
2010,05,03,06,05,22.40
2010,05,03,06,06,22.10
2010,05,03,06,07,14.40
2010,05,03,06,08,22.50
2010,05,03,06,09,27.40
2010,05,03,06,10,27.90
2010,05,03,06,11,28.40
2010,05,03,06,12,35.20
2010,05,03,06,13,28.20
2010,05,03,06,14,23.20
2010,05,03,06,15,22.90
2010,05,03,06,16,26.80
2010,05,03,06,17,27.50
2010,05,03,06,18,31.50
2010,05,03,06,19,33.10
2010,05,03,06,20,36.80
2010,05,03,06,21,25.90
2010,05,03,06,22,27.90
2010,05,03,06,23,30.10
2010,05,03,06,24,36.20
2010,05,03,06,25,37.00
2010,05,03,06,26,33.30
2010,05,03,06,27,31.80
2010,05,03,06,28,29.20
2010,05,03,06,29,28.80
2010,05,03,06,30,31.00
2010,05,03,06,31,28.20
2010,05,03,06,32,26.90
2010,05,03,06,33,31.50
2010,05,03,06,34,29.70
2010,05,03,06,35,26.20
2010,05,03,06,36,31.00
2010,05,03,06,37,32.80
2010,05,03,06,38,24.60
2010,05,03,06,39,31.00
2010,05,03,06,40,26.70
2010,05,03,06,41,25.30
2010,05,03,06,42,18.90
2010,05,03,06,43,28.80
2010,05,03,06,44,21.90
2010,05,03,06,45,26.30
2010,05,03,06,46,23.20
2010,05,03,06,47,19.70
2010,05,03,06,48,24.20
2010,05,03,06,49,20.10
2010,05,03,06,50,34.50
2010,05,03,06,51,24.20
2010,05,03,06,52,20.40
2010,05,03,06,53,18.80
2010,05,03,06,54,27.60
2010,05,03,06,55,27.00
2010,05,03,06,56,23.80
2010,05,03,06,57,32.70
2010,05,03,06,58,35.90
2010,05,03,06,59,28.90
2010,05,03,07,00,21.80
2010,05,03,07,01,20.90
2010,05,03,07,02,32.60
2010,05,03,07,03,32.60
2010,05,03,07,04,34.20
2010,05,03,07,05,16.80
2010,05,03,07,06,25.70
2010,05,03,07,07,22.00
2010,05,03,07,08,26.70
2010,05,03,07,09,22.00
2010,05,03,07,10,23.10
2010,05,03,07,11,28.50
2010,05,03,07,12,29.60
2010,05,03,07,13,22.60
2010,05,03,07,14,33.80
2010,05,03,07,15,26.10
2010,05,03,07,16,26.70
2010,05,03,07,17,25.30
2010,05,03,07,18,21.00
2010,05,03,07,19,24.50
2010,05,03,07,20,21.10
2010,05,03,07,21,31.70
2010,05,03,07,22,32.40
2010,05,03,07,23,27.10
2010,05,03,07,24,26.70
2010,05,03,07,25,26.80
2010,05,03,07,26,13.80
2010,05,03,07,27,13.50
2010,05,03,07,28,16.00
2010,05,03,07,29,12.80
2010,05,03,07,30,25.10
2010,05,03,07,31,24.10
2010,05,03,07,32,32.20
2010,05,03,07,33,24.40
2010,05,03,07,34,17.80
2010,05,03,07,35,21.30
2010,05,03,07,36,32.70
2010,05,03,07,37,25.80
2010,05,03,07,38,24.20
2010,05,03,07,39,21.20
2010,05,03,07,40,26.50
2010,05,03,07,41,29.40
2010,05,03,07,42,30.80
2010,05,03,07,43,25.30
2010,05,03,07,44,26.70
2010,05,03,07,45,18.80
2010,05,03,07,46,23.60
2010,05,03,07,47,30.10
2010,05,03,07,48,25.60
2010,05,03,07,49,23.30
2010,05,03,07,50,29.50
2010,05,03,07,51,33.50
2010,05,03,07,52,26.70
2010,05,03,07,53,18.20
2010,05,03,07,54,31.10
2010,05,03,07,55,26.10
2010,05,03,07,56,38.00
2010,05,03,07,57,46.60
2010,05,03,07,58,41.10
2010,05,03,07,59,40.30
2010,05,03,08,00,24.50
2010,05,03,08,01,30.70
2010,05,03,08,02,20.80
2010,05,03,08,03,28.30
2010,05,03,08,04,27.80
2010,05,03,08,05,25.30
2010,05,03,08,06,33.20
2010,05,03,08,07,27.00
2010,05,03,08,08,27.70
2010,05,03,08,09,20.50
2010,05,03,08,10,18.70
2010,05,03,08,11,17.20
2010,05,03,08,12,31.50
2010,05,03,08,13,19.90
2010,05,03,08,14,15.40
2010,05,03,08,15,16.50
2010,05,03,08,16,31.10
2010,05,03,08,17,31.50
2010,05,03,08,18,26.60
2010,05,03,08,19,31.90
2010,05,03,08,20,21.90
2010,05,03,08,21,24.90
2010,05,03,08,22,28.90
2010,05,03,08,23,28.20
2010,05,03,08,24,25.80
2010,05,03,08,25,33.00
2010,05,03,08,26,30.10
2010,05,03,08,27,26.90
2010,05,03,08,28,32.60
2010,05,03,08,29,30.70
2010,05,03,08,30,33.50
2010,05,03,08,31,29.00
2010,05,03,08,32,20.70
2010,05,03,08,33,14.50
2010,05,03,08,34,23.90
2010,05,03,08,35,29.10
2010,05,03,08,36,29.00
2010,05,03,08,37,38.50
2010,05,03,08,38,31.40
2010,05,03,08,39,15.20
2010,05,03,08,40,17.80
2010,05,03,08,41,35.60
2010,05,03,08,42,26.30
2010,05,03,08,43,24.70
2010,05,03,08,44,29.30
2010,05,03,08,45,18.40
2010,05,03,08,46,17.20
2010,05,03,08,47,23.90
2010,05,03,08,48,27.80
2010,05,03,08,49,24.00
2010,05,03,08,50,28.80
2010,05,03,08,51,25.70
2010,05,03,08,52,17.80
2010,05,03,08,53,19.20
2010,05,03,08,54,31.90
2010,05,03,08,55,29.90
2010,05,03,08,56,28.10
2010,05,03,08,57,22.30
2010,05,03,08,58,27.40
2010,05,03,08,59,22.90
2010,05,03,09,00,23.20
2010,05,03,09,01,34.30
2010,05,03,09,02,28.10
2010,05,03,09,03,30.40
2010,05,03,09,04,38.10
2010,05,03,09,05,17.50
2010,05,03,09,06,24.90
2010,05,03,09,07,23.00
2010,05,03,09,08,28.20
2010,05,03,09,09,29.00
2010,05,03,09,10,27.80
2010,05,03,09,11,30.70
2010,05,03,09,12,27.80
2010,05,03,09,13,25.80
2010,05,03,09,14,26.80
2010,05,03,09,15,30.80
2010,05,03,09,16,34.50
2010,05,03,09,17,29.60
2010,05,03,09,18,28.50
2010,05,03,09,19,34.70
2010,05,03,09,20,35.60
2010,05,03,09,21,35.20
2010,05,03,09,22,21.90
2010,05,03,09,23,34.20
2010,05,03,09,24,29.80
2010,05,03,09,25,27.10
2010,05,03,09,26,30.10
2010,05,03,09,27,17.70
2010,05,03,09,28,20.30
2010,05,03,09,29,22.50
2010,05,03,09,30,30.10
2010,05,03,09,31,30.70
2010,05,03,09,32,29.00
2010,05,03,09,33,27.50
2010,05,03,09,34,23.10
2010,05,03,09,35,30.70
2010,05,03,09,36,24.60
2010,05,03,09,37,30.10
2010,05,03,09,38,23.10
2010,05,03,09,39,30.00
2010,05,03,09,40,28.60
2010,05,03,09,41,26.00
2010,05,03,09,42,21.20
2010,05,03,09,43,26.60
2010,05,03,09,44,27.80
2010,05,03,09,45,22.50
2010,05,03,09,46,29.20
2010,05,03,09,47,30.90
2010,05,03,09,48,33.00
2010,05,03,09,49,31.00
2010,05,03,09,50,20.50
2010,05,03,09,51,25.50
2010,05,03,09,52,30.60
2010,05,03,09,53,23.00
2010,05,03,09,54,16.80
2010,05,03,09,55,26.70
2010,05,03,09,56,28.20
2010,05,03,09,57,23.40
2010,05,03,09,58,29.30
2010,05,03,09,59,20.20
2010,05,03,10,00,16.90
2010,05,03,10,01,23.40
2010,05,03,10,02,20.90
2010,05,03,10,03,19.00
2010,05,03,10,04,22.90
2010,05,03,10,05,22.30
2010,05,03,10,06,26.60
2010,05,03,10,07,22.80
2010,05,03,10,08,22.80
2010,05,03,10,09,17.80
2010,05,03,10,10,16.40
2010,05,03,10,11,17.50
2010,05,03,10,12,22.70
2010,05,03,10,13,27.70
2010,05,03,10,14,26.00
2010,05,03,10,15,25.40
2010,05,03,10,16,25.70
2010,05,03,10,17,24.60
2010,05,03,10,18,27.40
2010,05,03,10,19,18.70
2010,05,03,10,20,20.90
2010,05,03,10,21,20.80
2010,05,03,10,22,24.50
2010,05,03,10,23,26.20
2010,05,03,10,24,23.50
2010,05,03,10,25,25.60
2010,05,03,10,26,30.80
2010,05,03,10,27,32.30
2010,05,03,10,28,27.90
2010,05,03,10,29,33.90
2010,05,03,10,30,24.80
2010,05,03,10,31,24.80
2010,05,03,10,32,26.30
2010,05,03,10,33,21.30
2010,05,03,10,34,28.40
2010,05,03,10,35,26.20
2010,05,03,10,36,24.90
2010,05,03,10,37,23.70
2010,05,03,10,38,29.00
2010,05,03,10,39,35.60
2010,05,03,10,40,29.50
2010,05,03,10,41,18.70
2010,05,03,10,42,19.30
2010,05,03,10,43,24.50
2010,05,03,10,44,30.90
2010,05,03,10,45,27.80
2010,05,03,10,46,35.80
2010,05,03,10,47,24.40
2010,05,03,10,48,24.00
2010,05,03,10,49,25.70
2010,05,03,10,50,26.00
2010,05,03,10,51,32.30
2010,05,03,10,52,28.80
2010,05,03,10,53,36.80
2010,05,03,10,54,31.10
2010,05,03,10,55,31.10
2010,05,03,10,56,25.80
2010,05,03,10,57,32.80
2010,05,03,10,58,32.60
2010,05,03,10,59,26.90
2010,05,03,11,00,30.30
2010,05,03,11,01,23.90
2010,05,03,11,02,34.20
2010,05,03,11,03,34.70
2010,05,03,11,04,29.80
2010,05,03,11,05,36.90
2010,05,03,11,06,37.50
2010,05,03,11,07,27.00
2010,05,03,11,08,19.20
2010,05,03,11,09,26.10
2010,05,03,11,10,31.10
2010,05,03,11,11,29.50
2010,05,03,11,12,27.30
2010,05,03,11,13,21.20
2010,05,03,11,14,22.50
2010,05,03,11,15,24.80
2010,05,03,11,16,31.90
2010,05,03,11,17,34.70
2010,05,03,11,18,33.00
2010,05,03,11,19,30.60
2010,05,03,11,20,37.40
2010,05,03,11,21,34.60
2010,05,03,11,22,39.70
2010,05,03,11,23,26.60
2010,05,03,11,24,20.40
2010,05,03,11,25,17.70
2010,05,03,11,26,21.20
2010,05,03,11,27,16.20
2010,05,03,11,28,31.70
2010,05,03,11,29,41.70
2010,05,03,11,30,22.30
2010,05,03,11,31,30.20
2010,05,03,11,32,36.90
2010,05,03,11,33,35.70
2010,05,03,11,34,41.10
2010,05,03,11,35,29.50
2010,05,03,11,36,26.80
2010,05,03,11,37,22.70
2010,05,03,11,38,29.10
2010,05,03,11,39,33.60
2010,05,03,11,40,31.70
2010,05,03,11,41,28.70
2010,05,03,11,42,32.60
2010,05,03,11,43,28.00
2010,05,03,11,44,25.30
2010,05,03,11,45,34.30
2010,05,03,11,46,25.30
2010,05,03,11,47,16.80
2010,05,03,11,48,25.70
2010,05,03,11,49,26.30
2010,05,03,11,50,27.80
2010,05,03,11,51,22.40
2010,05,03,11,52,27.10
2010,05,03,11,53,29.60
2010,05,03,11,54,20.40
2010,05,03,11,55,32.50
2010,05,03,11,56,26.80
2010,05,03,11,57,22.10
2010,05,03,11,58,26.90
2010,05,03,11,59,26.80
2010,05,03,12,00,23.30
2010,05,03,12,01,12.70
2010,05,03,12,02,19.50
2010,05,03,12,03,30.50
2010,05,03,12,04,24.80
2010,05,03,12,05,27.00
2010,05,03,12,06,31.30
2010,05,03,12,07,30.50
2010,05,03,12,08,14.70
2010,05,03,12,09,24.70
2010,05,03,12,10,21.40
2010,05,03,12,11,23.80
2010,05,03,12,12,28.40
2010,05,03,12,13,29.80
2010,05,03,12,14,25.90
2010,05,03,12,15,31.00
2010,05,03,12,16,26.00
2010,05,03,12,17,23.60
2010,05,03,12,18,29.50
2010,05,03,12,19,25.10
2010,05,03,12,20,26.90
2010,05,03,12,21,20.20
2010,05,03,12,22,19.50
2010,05,03,12,23,23.30
2010,05,03,12,24,16.00
2010,05,03,12,25,20.70
2010,05,03,12,26,23.50
2010,05,03,12,27,31.20
2010,05,03,12,28,33.80
2010,05,03,12,29,30.20
2010,05,03,12,30,28.60
2010,05,03,12,31,28.20
2010,05,03,12,32,30.90
2010,05,03,12,33,33.80
2010,05,03,12,34,23.30
2010,05,03,12,35,27.00
2010,05,03,12,36,25.30
2010,05,03,12,37,24.70
2010,05,03,12,38,23.50
2010,05,03,12,39,22.00
2010,05,03,12,40,18.00
2010,05,03,12,41,21.70
2010,05,03,12,42,27.70
2010,05,03,12,43,19.60
2010,05,03,12,44,24.70
2010,05,03,12,45,24.20
2010,05,03,12,46,21.90
2010,05,03,12,47,15.80
2010,05,03,12,48,27.90
2010,05,03,12,49,22.60
2010,05,03,12,50,21.70
2010,05,03,12,51,21.70
2010,05,03,12,52,27.40
2010,05,03,12,53,27.30
2010,05,03,12,54,22.90
2010,05,03,12,55,24.70
2010,05,03,12,56,20.10
2010,05,03,12,57,24.40
2010,05,03,12,58,21.50
2010,05,03,12,59,23.50
2010,05,03,13,00,21.90
2010,05,03,13,01,23.20
2010,05,03,13,02,13.80
2010,05,03,13,03,23.40
2010,05,03,13,04,20.10
2010,05,03,13,05,12.70
2010,05,03,13,06,20.40
2010,05,03,13,07,16.90
2010,05,03,13,08,14.00
2010,05,03,13,09,14.20
2010,05,03,13,10,16.70
2010,05,03,13,11,23.30
2010,05,03,13,12,32.30
2010,05,03,13,13,34.50
2010,05,03,13,14,20.00
2010,05,03,13,15,22.60
2010,05,03,13,16,19.10
2010,05,03,13,17,28.10
2010,05,03,13,18,19.60
2010,05,03,13,19,17.70
2010,05,03,13,20,17.90
2010,05,03,13,21,15.10
2010,05,03,13,22,34.90
2010,05,03,13,23,30.80
2010,05,03,13,24,23.30
2010,05,03,13,25,19.30
2010,05,03,13,26,15.70
2010,05,03,13,27,10.60
2010,05,03,13,28,18.40
2010,05,03,13,29,20.70
2010,05,03,13,30,30.80
2010,05,03,13,31,28.30
2010,05,03,13,32,23.30
2010,05,03,13,33,22.10
2010,05,03,13,34,19.80
2010,05,03,13,35,25.30
2010,05,03,13,36,29.80
2010,05,03,13,37,22.40
2010,05,03,13,38,17.80
2010,05,03,13,39,17.20
2010,05,03,13,40,29.30
2010,05,03,13,41,24.50
2010,05,03,13,42,21.50
2010,05,03,13,43,17.80
2010,05,03,13,44,37.10
2010,05,03,13,45,24.60
2010,05,03,13,46,30.60
2010,05,03,13,47,24.50
2010,05,03,13,48,23.60
2010,05,03,13,49,26.80
2010,05,03,13,50,18.90
2010,05,03,13,51,24.70
2010,05,03,13,52,15.20
2010,05,03,13,53,14.80
2010,05,03,13,54,16.60
2010,05,03,13,55,10.20
2010,05,03,13,56,17.50
2010,05,03,13,57,13.40
2010,05,03,13,58,17.60
2010,05,03,13,59,28.30
2010,05,03,14,00,23.90
2010,05,03,14,01,17.90
2010,05,03,14,02,23.50
2010,05,03,14,03,23.70
2010,05,03,14,04,20.50
2010,05,03,14,05,16.50
2010,05,03,14,06,17.70
2010,05,03,14,07,29.40
2010,05,03,14,08,27.70
2010,05,03,14,09,28.10
2010,05,03,14,10,25.60
2010,05,03,14,11,15.40
2010,05,03,14,12,17.20
2010,05,03,14,13,32.00
2010,05,03,14,14,31.50
2010,05,03,14,15,33.00
2010,05,03,14,16,24.60
2010,05,03,14,17,21.20
2010,05,03,14,18,21.10
2010,05,03,14,19,23.00
2010,05,03,14,20,18.50
2010,05,03,14,21,22.50
2010,05,03,14,22,19.30
2010,05,03,14,23,23.30
2010,05,03,14,24,26.70
2010,05,03,14,25,23.70
2010,05,03,14,26,22.50
2010,05,03,14,27,28.70
2010,05,03,14,28,25.10
2010,05,03,14,29,23.70
2010,05,03,14,30,30.60
2010,05,03,14,31,28.60
2010,05,03,14,32,30.90
2010,05,03,14,33,31.20
2010,05,03,14,34,19.40
2010,05,03,14,35,20.00
2010,05,03,14,36,21.70
2010,05,03,14,37,35.80
2010,05,03,14,38,26.20
2010,05,03,14,39,23.20
2010,05,03,14,40,23.10
2010,05,03,14,41,23.40
2010,05,03,14,42,25.90
2010,05,03,14,43,22.10
2010,05,03,14,44,17.00
2010,05,03,14,45,19.40
2010,05,03,14,46,31.30
2010,05,03,14,47,27.00
2010,05,03,14,48,27.50
2010,05,03,14,49,35.30
2010,05,03,14,50,27.70
2010,05,03,14,51,26.50
2010,05,03,14,52,29.90
2010,05,03,14,53,27.10
2010,05,03,14,54,25.30
2010,05,03,14,55,26.70
2010,05,03,14,56,26.60
2010,05,03,14,57,21.50
2010,05,03,14,58,23.30
2010,05,03,14,59,21.20
2010,05,03,15,00,24.00
2010,05,03,15,01,32.10
2010,05,03,15,02,29.00
2010,05,03,15,03,30.80
2010,05,03,15,04,28.40
2010,05,03,15,05,27.30
2010,05,03,15,06,21.00
2010,05,03,15,07,34.30
2010,05,03,15,08,27.10
2010,05,03,15,09,24.90
2010,05,03,15,10,24.30
2010,05,03,15,11,29.40
2010,05,03,15,12,27.30
2010,05,03,15,13,27.60
2010,05,03,15,14,27.50
2010,05,03,15,15,23.30
2010,05,03,15,16,27.00
2010,05,03,15,17,26.10
2010,05,03,15,18,23.60
2010,05,03,15,19,19.80
2010,05,03,15,20,24.40
2010,05,03,15,21,34.90
2010,05,03,15,22,27.60
2010,05,03,15,23,24.20
2010,05,03,15,24,32.60
2010,05,03,15,25,31.50
2010,05,03,15,26,25.70
2010,05,03,15,27,30.60
2010,05,03,15,28,28.60
2010,05,03,15,29,34.70
2010,05,03,15,30,31.80
2010,05,03,15,31,24.30
2010,05,03,15,32,32.60
2010,05,03,15,33,18.80
2010,05,03,15,34,22.90
2010,05,03,15,35,11.80
2010,05,03,15,36,23.20
2010,05,03,15,37,27.50
2010,05,03,15,38,31.20
2010,05,03,15,39,30.40
2010,05,03,15,40,27.80
2010,05,03,15,41,25.50
2010,05,03,15,42,22.50
2010,05,03,15,43,22.40
2010,05,03,15,44,17.50
2010,05,03,15,45,17.40
2010,05,03,15,46,19.90
2010,05,03,15,47,20.80
2010,05,03,15,48,17.10
2010,05,03,15,49,22.40
2010,05,03,15,50,22.10
2010,05,03,15,51,19.50
2010,05,03,15,52,23.60
2010,05,03,15,53,28.50
2010,05,03,15,54,28.60
2010,05,03,15,55,21.60
2010,05,03,15,56,30.00
2010,05,03,15,57,33.60
2010,05,03,15,58,32.50
2010,05,03,15,59,36.60
2010,05,03,16,00,25.20
2010,05,03,16,01,25.70
2010,05,03,16,02,26.70
2010,05,03,16,03,34.90
2010,05,03,16,04,22.00
2010,05,03,16,05,20.00
2010,05,03,16,06,25.30
2010,05,03,16,07,33.10
2010,05,03,16,08,30.10
2010,05,03,16,09,30.60
2010,05,03,16,10,24.30
2010,05,03,16,11,29.60
2010,05,03,16,12,25.50
2010,05,03,16,13,30.40
2010,05,03,16,14,33.20
2010,05,03,16,15,23.80
2010,05,03,16,16,20.60
2010,05,03,16,17,22.10
2010,05,03,16,18,16.50
2010,05,03,16,19,29.00
2010,05,03,16,20,31.30
2010,05,03,16,21,22.50
2010,05,03,16,22,24.60
2010,05,03,16,23,19.10
2010,05,03,16,24,25.50
2010,05,03,16,25,26.00
2010,05,03,16,26,18.70
2010,05,03,16,27,19.10
2010,05,03,16,28,29.20
2010,05,03,16,29,29.70
2010,05,03,16,30,25.30
2010,05,03,16,31,28.50
2010,05,03,16,32,30.70
2010,05,03,16,33,31.60
2010,05,03,16,34,24.30
2010,05,03,16,35,22.00
2010,05,03,16,36,24.80
2010,05,03,16,37,28.60
2010,05,03,16,38,24.90
2010,05,03,16,39,24.10
2010,05,03,16,40,28.10
2010,05,03,16,41,32.30
2010,05,03,16,42,28.10
2010,05,03,16,43,21.30
2010,05,03,16,44,14.20
2010,05,03,16,45,15.60
2010,05,03,16,46,22.00
2010,05,03,16,47,27.30
2010,05,03,16,48,28.70
2010,05,03,16,49,24.80
2010,05,03,16,50,34.90
2010,05,03,16,51,32.90
2010,05,03,16,52,30.30
2010,05,03,16,53,27.30
2010,05,03,16,54,37.30
2010,05,03,16,55,24.80
2010,05,03,16,56,25.20
2010,05,03,16,57,32.40
2010,05,03,16,58,29.70
2010,05,03,16,59,28.80
2010,05,03,17,00,21.80
2010,05,03,17,01,23.30
2010,05,03,17,02,21.60
2010,05,03,17,03,15.00
2010,05,03,17,04,21.20
2010,05,03,17,05,40.10
2010,05,03,17,06,32.00
2010,05,03,17,07,34.20
2010,05,03,17,08,27.40
2010,05,03,17,09,26.90
2010,05,03,17,10,31.30
2010,05,03,17,11,30.00
2010,05,03,17,12,29.60
2010,05,03,17,13,26.50
2010,05,03,17,14,21.70
2010,05,03,17,15,23.00
2010,05,03,17,16,31.10
2010,05,03,17,17,30.10
2010,05,03,17,18,25.80
2010,05,03,17,19,19.70
2010,05,03,17,20,22.70
2010,05,03,17,21,17.70